Aérodrome :
LOGIN :

S'inscrire | Disclaimer

   EN    FR    IT 

 










Légende :    VFR   VFR Marginal   IFR   IFR Intensif   IFR Très Intensif
Visi : 
Plafond : 
>= 8 km
>= 3000ft
5 à 8 km
1000 à 3000 ft
1500m à 5 km
500 à 1000 ft
800 à 1500m
200 à 500 ft
< 800m
< 200 ft
Symboles :   Orages  Brouillard  Fortes neiges  Fortes précipitations  Vent > 20 kt
SIGMETs :   Divers  Orages  Givrage  Turbulence  Onde Orograph.  Cendres Volcan.







- Altitude de l'aérodrome : 44 ft
- Code IATA : SOU
- Voir les cartes d'approche


EGHI - Southampton

DERNIER METAR :
  • 171420Z VRB02KT 8000 -RADZ SCT006 BKN015 13/12 Q1020

METARs EXPIRÉS :
  • 171350Z 23002KT 7000 -RADZ FEW005 BKN008 13/12 Q1020
  • 171320Z VRB03KT 7000 -RADZ FEW005 BKN008 13/12 Q1019
  • 171250Z 21004KT 7000 -RADZ FEW005 BKN007 13/12 Q1019
  • 171220Z 22003KT 7000 -RA SCT006 BKN014 13/12 Q1019
  • 171150Z 21005KT 8000 -RA SCT006 BKN014 13/12 Q1019

TAF TAF EGHI
Valide du 17 à 15h jusqu'au 18 à 00h UTC


171358Z 1715/1724 VRB04KT 7000 -RADZ BKN008
BECMG 1715/1718 9999 NSW FEW010 SCT020
PROB40
TEMPO 1718/1722 5000 -DZ BKN009
ATIS : +44 23 8062 7103
Pas de NOTAMs connus pour ce terrain.



MET'MAP, la Météo Aéronautique d'un coup d'oeil ! - Copyright ORBIFLY Décembre 2007 - Disclaimer

ORBIFLY MET'MAP TEAM :

Programmation & Développement : Alexandra Zaïnal
Conception & Développement : Baudouin d'Aumeries
Co-Programmation & Développement : Marc-Olivier Méhu
Soutien technique & logistique : Manuel Goepfert

Contact : metmap@orbifly.com




SOURCES & CREDITS :

   NOAA